Weather History for NW Arkansas Airport, AR

Change the Weather History Date:

Wednesday, February 26, 2014

  Actual Average Record
Temperature  
Mean Temperature 24 °F -  
Max Temperature 32 °F - - ()
Min Temperature 15 °F - - ()
Degree Days  
Heating Degree Days 42    
Moisture  
Dew Point 5 °F    
Average Humidity 51    
Maximum Humidity 74    
Minimum Humidity 20    
Precipitation  
Precipitation 0.00 in - - ()
Sea Level Pressure  
Sea Level Pressure 30.25 in    
Wind  
Wind Speed 13 mph (NNW)    
Max Wind Speed 22 mph    
Max Gust Speed 29 mph    
Visibility 10 miles    
Events Snow    
T = Trace of Precipitation, MM = Missing Value Source: NWS Daily Summary

Daily Weather History Graph

Daily Weather History Graph

Search for Another Location

Airport:

Trip Planner

Search our weather history database for the weather conditions in past years. The results will help you decide how hot, cold, wet, or windy it might be!

Date:

Astronomy

Feb. 26, 2014 Rise Set
Actual Time 6:51 AM CST 6:09 PM CST
Civil Twilight 6:25 AM CST 6:35 PM CST
Nautical Twilight 5:55 AM CST 7:04 PM CST
Astronomical Twilight 5:26 AM CST 7:34 PM CST
Moon 4:34 AM CST (2/26) 3:27 PM CST (2/26)
Length of Visible Light 12h 09m
Length of Day
11h 17m
Waning Crescent, 10% of the Moon is Illuminated
Feb 26
Waning Crescent
Mar 1
New
Mar 8
First Quarter
Mar 16
Full
Mar 23
Last Quarter

Hourly Weather History & Observations

Time (CST) Temp. Windchill Dew Point Humidity Pressure Visibility Wind Dir Wind Speed Gust Speed Precip Events Conditions
12:53 AM 23.0 °F 7.6 °F 9.0 °F 55% 30.33 in 10.0 mi North 21.9 mph 28.8 mph 0.00 in   Overcast
1:53 AM 21.0 °F 7.1 °F 9.0 °F 60% 30.34 in 9.0 mi North 16.1 mph 26.5 mph 0.00 in   Overcast
2:53 AM 19.0 °F 4.0 °F 9.0 °F 65% 30.33 in 10.0 mi NNE 17.3 mph 24.2 mph N/A   Clear
3:53 AM 17.1 °F 2.5 °F 9.0 °F 71% 30.34 in 10.0 mi North 15.0 mph - N/A   Partly Cloudy
4:25 AM 17.6 °F 5.0 °F 8.6 °F 68% 30.30 in 10.0 mi North 11.5 mph - N/A   Mostly Cloudy
4:53 AM 16.0 °F 2.3 °F 9.0 °F 74% 30.33 in 10.0 mi North 12.7 mph - N/A   Scattered Clouds
5:30 AM 15.8 °F 3.4 °F 8.6 °F 73% 30.29 in 10.0 mi North 10.4 mph 19.6 mph N/A   Mostly Cloudy
5:53 AM 16.0 °F 0.1 °F 9.0 °F 74% 30.33 in 10.0 mi North 17.3 mph - N/A   Overcast
6:53 AM 15.1 °F 0.5 °F 8.1 °F 74% 30.33 in 9.0 mi North 13.8 mph - 0.00 in   Overcast
7:53 AM 16.0 °F 2.3 °F 7.0 °F 68% 30.36 in 9.0 mi North 12.7 mph - 0.00 in Snow Light Snow
8:53 AM 18.0 °F 6.1 °F 7.0 °F 62% 30.35 in 9.0 mi NE 10.4 mph - 0.00 in   Mostly Cloudy
9:11 AM 19.4 °F 7.9 °F 6.8 °F 58% 30.30 in 10.0 mi NE 10.4 mph - N/A   Scattered Clouds
9:53 AM 19.9 °F 8.6 °F 7.0 °F 57% 30.35 in 10.0 mi NNE 10.4 mph - N/A   Clear
10:53 AM 23.0 °F 17.0 °F 6.1 °F 48% 30.34 in 10.0 mi NNE 4.6 mph - N/A   Clear
11:53 AM 25.0 °F 18.1 °F 5.0 °F 43% 30.31 in 10.0 mi NW 5.8 mph 17.3 mph N/A   Clear
12:53 PM 28.0 °F 20.8 °F 3.0 °F 34% 30.28 in 10.0 mi Variable 6.9 mph - N/A   Clear
1:53 PM 30.9 °F 26.2 °F 1.9 °F 29% 30.22 in 10.0 mi North 4.6 mph - N/A   Clear
2:53 PM 30.9 °F 26.2 °F -0.9 °F 26% 30.18 in 10.0 mi WNW 4.6 mph - N/A   Clear
3:53 PM 32.0 °F 24.2 °F -5.1 °F 20% 30.15 in 10.0 mi WNW 9.2 mph - N/A   Clear
4:53 PM 30.9 °F 22.8 °F -4.0 °F 22% 30.14 in 10.0 mi West 9.2 mph - N/A   Clear
5:53 PM 28.0 °F 20.8 °F -2.9 °F 26% 30.13 in 10.0 mi West 6.9 mph - N/A   Clear
6:53 PM 24.1 °F 19.7 °F -0.9 °F 34% 30.14 in 10.0 mi NW 3.5 mph - N/A   Clear
7:53 PM 21.9 °F 17.2 °F -0.0 °F 38% 30.14 in 10.0 mi WNW 3.5 mph - N/A   Clear
8:53 PM 21.0 °F 16.2 °F 5.0 °F 50% 30.14 in 10.0 mi West 3.5 mph - N/A   Clear
9:53 PM 19.0 °F 12.3 °F 3.0 °F 50% 30.15 in 10.0 mi WSW 4.6 mph - N/A   Clear
10:53 PM 17.1 °F 8.7 °F 3.0 °F 54% 30.14 in 10.0 mi SSW 5.8 mph - N/A   Clear
11:53 PM 17.1 °F 10.0 °F 3.0 °F 54% 30.11 in 10.0 mi SW 4.6 mph - N/A   Clear